Weather History for Cortez, CO

Change the Weather History Date:

Friday, September 14, 2012

  Actual Average Record
Temperature  
Mean Temperature 60 °F 61 °F  
Max Temperature 75 °F 78 °F 91 °F (2000)
Min Temperature 44 °F 43 °F 32 °F (2003)
Degree Days  
Heating Degree Days 5 5  
Month to date heating degree days 13 40  
Since 1 July heating degree days 14 52  
Cooling Degree Days 0 0  
Month to date cooling degree days 38 16  
Year to date cooling degree days 746 425  
Growing Degree Days 10 (Base 50)    
Moisture  
Dew Point 42 °F    
Average Humidity 60    
Maximum Humidity 93    
Minimum Humidity 27    
Precipitation  
Precipitation 0.00 in 0.06 in 0.56 in (2011)
Month to date precipitation 0.55 0.75  
Year to date precipitation 5.87 9.19  
Sea Level Pressure  
Sea Level Pressure 30.27 in    
Wind  
Wind Speed 6 mph (SE)    
Max Wind Speed 17 mph    
Max Gust Speed 22 mph    
Visibility 10 miles    
Events      
T = Trace of Precipitation, MM = Missing Value Source: NWS Daily Summary

Daily Weather History Graph

Daily Weather History Graph

Search for Another Location

Airport:

Trip Planner

Search our weather history database for the weather conditions in past years. The results will help you decide how hot, cold, wet, or windy it might be!

Date:

Astronomy

Sep. 14, 2012 Rise Set
Actual Time 6:56 AM MDT 7:22 PM MDT
Civil Twilight 6:30 AM MDT 7:49 PM MDT
Nautical Twilight 5:59 AM MDT 8:19 PM MDT
Astronomical Twilight 5:27 AM MDT 8:51 PM MDT
Moon 5:24 AM MDT (9/14) 6:21 PM MDT (9/14)
Length of Visible Light 13h 19m
Length of Day
12h 26m
Waning Crescent, 2% of the Moon is Illuminated
Sep 14
Waning Crescent
Sep 15
New
Sep 22
First Quarter
Sep 29
Full
Oct 8
Last Quarter

Hourly Weather History & Observations

Time (MDT) Temp. Windchill Dew Point Humidity Pressure Visibility Wind Dir Wind Speed Gust Speed Precip Events Conditions
12:53 AM 46.9 °F - 44.1 °F 90% 30.28 in 10.0 mi Calm Calm - N/A   Clear
1:53 AM 46.9 °F - 43.0 °F 86% 30.29 in 10.0 mi Calm Calm - N/A   Clear
2:53 AM 46.0 °F 43.9 °F 42.1 °F 86% 30.28 in 10.0 mi NE 4.6 mph - N/A   Clear
3:53 AM 45.0 °F - 42.1 °F 90% 30.28 in 10.0 mi Calm Calm - N/A   Clear
4:53 AM 46.0 °F 43.9 °F 42.1 °F 86% 30.32 in 10.0 mi East 4.6 mph - N/A   Clear
5:53 AM 46.0 °F 44.8 °F 42.1 °F 86% 30.34 in 10.0 mi ENE 3.5 mph - N/A   Clear
6:53 AM 44.1 °F 40.8 °F 41.0 °F 89% 30.36 in 10.0 mi ENE 5.8 mph - N/A   Clear
7:53 AM 48.9 °F - 44.1 °F 83% 30.37 in 10.0 mi East 3.5 mph - N/A   Clear
8:53 AM 55.0 °F - 46.0 °F 72% 30.36 in 10.0 mi Calm Calm - N/A   Clear
9:53 AM 61.0 °F - 44.1 °F 54% 30.35 in 10.0 mi Calm Calm - N/A   Clear
10:53 AM 64.0 °F - 43.0 °F 46% 30.34 in 10.0 mi WSW 3.5 mph - N/A   Clear
11:53 AM 68.0 °F - 44.1 °F 42% 30.31 in 10.0 mi SSW 9.2 mph - N/A   Clear
12:53 PM 71.1 °F - 44.1 °F 38% 30.29 in 10.0 mi South 11.5 mph - N/A   Clear
1:53 PM 72.0 °F - 43.0 °F 35% 30.25 in 10.0 mi South 9.2 mph - N/A   Clear
2:53 PM 75.0 °F - 42.1 °F 31% 30.22 in 10.0 mi SSW 10.4 mph 21.9 mph N/A   Clear
3:53 PM 75.0 °F - 41.0 °F 29% 30.20 in 10.0 mi SSW 15.0 mph - N/A   Clear
4:53 PM 75.0 °F - 39.9 °F 28% 30.19 in 10.0 mi SSW 13.8 mph - N/A   Clear
5:53 PM 73.9 °F - 39.0 °F 28% 30.18 in 10.0 mi SSW 13.8 mph - N/A   Clear
6:53 PM 70.0 °F - 39.0 °F 32% 30.20 in 10.0 mi SSW 9.2 mph - N/A   Clear
7:53 PM 62.1 °F - 39.0 °F 43% 30.21 in 10.0 mi Calm Calm - N/A   Clear
8:53 PM 55.0 °F - 43.0 °F 64% 30.23 in 10.0 mi Calm Calm - N/A   Clear
9:53 PM 53.1 °F - 41.0 °F 64% 30.24 in 10.0 mi NE 5.8 mph - N/A   Clear
10:53 PM 51.1 °F - 39.9 °F 66% 30.24 in 10.0 mi ENE 6.9 mph - N/A   Clear
11:53 PM 50.0 °F - 39.9 °F 68% 30.24 in 10.0 mi ENE 5.8 mph - N/A   Clear